XBMAP MMMZ-MMMZ

Flight info

Callsign XBMAP
Flight time 0h 36m
Altitude 3000
Route POSTA4B POSTA
Aircraft C172/L-SFG/C

Departure

Time 2026-04-18 03:35
Airport General Rafael Buelna International Airport (MMMZ)

Arrival

Time 2026-04-18 04:11
Airport General Rafael Buelna International Airport (MMMZ)
Time Latitude Longitude Altitude Speed Heading
2026-04-18 03:24 23.16575 -106.26599 40 ft 0 kts
2026-04-18 03:30 23.16585 -106.26604 40 ft 7 kts 313°
2026-04-18 03:30 23.16605 -106.26699 40 ft 17 kts 275°
2026-04-18 03:30 23.16561 -106.26808 40 ft 18 kts 208°
2026-04-18 03:31 23.16442 -106.26846 40 ft 19 kts 162°
2026-04-18 03:31 23.16318 -106.26842 41 ft 17 kts 164°
2026-04-18 03:31 23.16237 -106.26757 40 ft 18 kts 121°
2026-04-18 03:31 23.16186 -106.26630 41 ft 19 kts 107°
2026-04-18 03:32 23.16165 -106.26482 41 ft 21 kts 94°
2026-04-18 03:32 23.16154 -106.26314 40 ft 23 kts 95°
2026-04-18 03:32 23.16156 -106.26153 40 ft 19 kts 90°
2026-04-18 03:32 23.16148 -106.26047 41 ft 12 kts 87°
2026-04-18 03:33 23.16127 -106.26038 41 ft 0 kts 244°
2026-04-18 03:33 23.16125 -106.26046 41 ft 0 kts 271°
2026-04-18 03:33 23.16125 -106.26050 41 ft 0 kts 260°
2026-04-18 03:34 23.16124 -106.26071 41 ft 17 kts 268°
2026-04-18 03:34 23.16138 -106.26382 40 ft 62 kts 274°
2026-04-18 03:34 23.16148 -106.26905 168 ft 70 kts 267°
2026-04-18 03:34 23.16120 -106.27441 333 ft 73 kts 265°
2026-04-18 03:35 23.16078 -106.28047 470 ft 86 kts 265°
2026-04-18 03:35 23.15980 -106.28730 680 ft 92 kts 257°
2026-04-18 03:35 23.15472 -106.29057 937 ft 102 kts 164°
2026-04-18 03:35 23.15018 -106.28516 1157 ft 102 kts 107°
2026-04-18 03:36 23.14843 -106.27747 1322 ft 109 kts 101°
2026-04-18 03:36 23.14702 -106.26915 1470 ft 115 kts 97°
2026-04-18 03:36 23.14541 -106.26033 1555 ft 121 kts 98°
2026-04-18 03:36 23.14406 -106.25155 1794 ft 118 kts 97°
2026-04-18 03:37 23.14261 -106.24263 1871 ft 124 kts 98°
2026-04-18 03:37 23.14119 -106.23342 2029 ft 124 kts 96°
2026-04-18 03:37 23.13982 -106.22410 2110 ft 126 kts 91°
2026-04-18 03:37 23.14381 -106.21642 2141 ft 119 kts 18°
2026-04-18 03:38 23.15102 -106.21982 1998 ft 122 kts 314°
2026-04-18 03:38 23.15616 -106.22666 1495 ft 109 kts 303°
2026-04-18 03:38 23.15885 -106.23406 911 ft 104 kts 284°
2026-04-18 03:38 23.16010 -106.24132 499 ft 93 kts 278°
2026-04-18 03:39 23.16066 -106.24795 189 ft 86 kts 274°
2026-04-18 03:39 23.16092 -106.25365 40 ft 64 kts 273°
2026-04-18 03:39 23.16115 -106.25874 94 ft 71 kts 271°
2026-04-18 03:39 23.16143 -106.26447 201 ft 78 kts 274°
2026-04-18 03:40 23.16169 -106.27029 380 ft 77 kts 272°
2026-04-18 03:40 23.16182 -106.27619 545 ft 78 kts 277°
2026-04-18 03:40 23.16261 -106.28203 725 ft 85 kts 279°
2026-04-18 03:40 23.16197 -106.28881 954 ft 96 kts 236°
2026-04-18 03:41 23.15562 -106.29099 1222 ft 106 kts 172°
2026-04-18 03:41 23.14986 -106.28589 1350 ft 116 kts 116°
2026-04-18 03:41 23.14766 -106.27733 1468 ft 120 kts 101°
2026-04-18 03:41 23.14557 -106.26833 1514 ft 126 kts 99°
2026-04-18 03:42 23.14444 -106.25930 1580 ft 113 kts 95°
2026-04-18 03:42 23.14394 -106.25120 1635 ft 106 kts 89°
2026-04-18 03:42 23.14319 -106.24311 1613 ft 106 kts 93°
2026-04-18 03:42 23.14232 -106.23506 1586 ft 110 kts 100°
2026-04-18 03:43 23.14035 -106.22723 1572 ft 108 kts 100°
2026-04-18 03:43 23.13950 -106.21929 1515 ft 106 kts 67°
2026-04-18 03:43 23.14526 -106.21581 1383 ft 104 kts 346°
2026-04-18 03:43 23.15124 -106.21961 1358 ft 102 kts 336°
2026-04-18 03:44 23.15642 -106.22477 1207 ft 99 kts 303°
2026-04-18 03:44 23.15861 -106.23125 927 ft 88 kts 278°
2026-04-18 03:44 23.15946 -106.23775 576 ft 85 kts 280°
2026-04-18 03:44 23.16017 -106.24399 301 ft 81 kts 275°
2026-04-18 03:45 23.16067 -106.24987 105 ft 74 kts 274°
2026-04-18 03:45 23.16096 -106.25503 40 ft 65 kts 272°
2026-04-18 03:45 23.16123 -106.26067 111 ft 80 kts 274°
2026-04-18 03:45 23.16169 -106.26650 310 ft 75 kts 274°
2026-04-18 03:46 23.16183 -106.27278 403 ft 91 kts 270°
2026-04-18 03:46 23.16196 -106.28004 535 ft 100 kts 275°
2026-04-18 03:46 23.16236 -106.28778 760 ft 104 kts 275°
2026-04-18 03:46 23.16302 -106.29519 1094 ft 96 kts 280°
2026-04-18 03:47 23.16312 -106.30259 1300 ft 99 kts 257°
2026-04-18 03:47 23.15803 -106.30793 1487 ft 110 kts 195°
2026-04-18 03:47 23.15108 -106.30555 1625 ft 121 kts 130°
2026-04-18 03:47 23.14866 -106.29711 1890 ft 111 kts 95°
2026-04-18 03:48 23.14760 -106.28861 1954 ft 117 kts 95°
2026-04-18 03:48 23.14672 -106.27973 2107 ft 119 kts 88°
2026-04-18 03:48 23.14614 -106.27100 2247 ft 117 kts 95°
2026-04-18 03:48 23.14508 -106.26211 2238 ft 118 kts 88°
2026-04-18 03:49 23.14464 -106.25324 2334 ft 117 kts 94°
2026-04-18 03:49 23.14325 -106.24462 2378 ft 111 kts 98°
2026-04-18 03:49 23.14174 -106.23654 2414 ft 106 kts 98°
2026-04-18 03:49 23.13982 -106.22873 2389 ft 108 kts 104°
2026-04-18 03:50 23.13848 -106.22062 2266 ft 110 kts 70°
2026-04-18 03:50 23.14371 -106.21586 2207 ft 99 kts 14°
2026-04-18 03:50 23.15064 -106.21476 2070 ft 101 kts 352°
2026-04-18 03:50 23.15646 -106.21856 1901 ft 101 kts 309°
2026-04-18 03:51 23.15855 -106.22552 1543 ft 104 kts 272°
2026-04-18 03:51 23.15877 -106.23287 1189 ft 94 kts 281°
2026-04-18 03:51 23.15969 -106.23990 774 ft 91 kts 277°
2026-04-18 03:51 23.16041 -106.24653 457 ft 86 kts 277°
2026-04-18 03:52 23.16088 -106.25290 302 ft 85 kts 275°
2026-04-18 03:52 23.16121 -106.25972 340 ft 97 kts 274°
2026-04-18 03:52 23.16157 -106.26714 486 ft 101 kts 275°
2026-04-18 03:52 23.16223 -106.27473 667 ft 99 kts 278°
2026-04-18 03:53 23.16279 -106.28206 863 ft 100 kts 276°
2026-04-18 03:53 23.16316 -106.28956 1152 ft 98 kts 274°
2026-04-18 03:53 23.16332 -106.29652 1529 ft 92 kts 272°
2026-04-18 03:53 23.16297 -106.30371 1691 ft 92 kts 273°
2026-04-18 03:54 23.16143 -106.30924 2076 ft 88 kts 254°
2026-04-18 03:54 23.15926 -106.31608 2269 ft 103 kts 261°
2026-04-18 03:54 23.15764 -106.32338 2558 ft 100 kts 263°
2026-04-18 03:54 23.15640 -106.33088 2693 ft 99 kts 265°
2026-04-18 03:55 23.15597 -106.33836 2871 ft 100 kts 274°
2026-04-18 03:55 23.15696 -106.34600 2999 ft 99 kts 282°
2026-04-18 03:55 23.15834 -106.35379 3239 ft 109 kts 285°
2026-04-18 03:55 23.16047 -106.36149 3544 ft 110 kts 297°
2026-04-18 03:56 23.16730 -106.36530 3797 ft 115 kts
2026-04-18 03:56 23.17458 -106.36113 3965 ft 122 kts 55°
2026-04-18 03:56 23.17293 -106.35271 4200 ft 120 kts 137°
2026-04-18 03:56 23.16460 -106.34966 4203 ft 132 kts 181°
2026-04-18 03:57 23.15590 -106.36301 4558 ft 122 kts 278°
2026-04-18 03:57 23.15727 -106.37187 4633 ft 116 kts 264°
2026-04-18 03:57 23.15237 -106.37893 4557 ft 127 kts 201°
2026-04-18 03:58 23.14436 -106.37677 4566 ft 126 kts 128°
2026-04-18 03:58 23.14409 -106.36779 4547 ft 124 kts 56°
2026-04-18 03:58 23.15159 -106.36416 4443 ft 129 kts 351°
2026-04-18 03:58 23.15812 -106.37008 4186 ft 127 kts 292°
2026-04-18 03:59 23.15973 -106.37919 4035 ft 117 kts 283°
2026-04-18 03:59 23.16497 -106.38533 3849 ft 113 kts 343°
2026-04-18 03:59 23.17217 -106.38671 3794 ft 102 kts 321°
2026-04-18 03:59 23.17099 -106.39381 3448 ft 123 kts 210°
2026-04-18 04:00 23.16297 -106.39489 3408 ft 112 kts 178°
2026-04-18 04:00 23.15554 -106.39695 3287 ft 110 kts 216°
2026-04-18 04:00 23.15186 -106.40383 3135 ft 109 kts 263°
2026-04-18 04:00 23.15360 -106.41163 2916 ft 112 kts 316°
2026-04-18 04:01 23.16090 -106.41372 2791 ft 106 kts 354°
2026-04-18 04:01 23.16834 -106.41493 2621 ft 107 kts 351°
2026-04-18 04:01 23.17486 -106.41224 2523 ft 108 kts 50°
2026-04-18 04:01 23.17538 -106.40439 2412 ft 114 kts 116°
2026-04-18 04:02 23.16940 -106.39921 2347 ft 113 kts 162°
2026-04-18 04:02 23.16200 -106.39969 2263 ft 108 kts 215°
2026-04-18 04:02 23.15814 -106.40625 2203 ft 99 kts 264°
2026-04-18 04:02 23.16050 -106.41267 2158 ft 90 kts 317°
2026-04-18 04:03 23.16613 -106.41623 2139 ft 101 kts 332°
2026-04-18 04:03 23.17288 -106.41761 2267 ft 101 kts
2026-04-18 04:03 23.17937 -106.41421 2354 ft 116 kts 44°
2026-04-18 04:03 23.18146 -106.40900 2685 ft 112 kts 89°
2026-04-18 04:04 23.17892 -106.40058 2725 ft 120 kts 109°
2026-04-18 04:04 23.17546 -106.39193 2741 ft 127 kts 112°
2026-04-18 04:04 23.17182 -106.38320 2770 ft 130 kts 113°
2026-04-18 04:04 23.16797 -106.37439 2929 ft 129 kts 116°
2026-04-18 04:05 23.16399 -106.36584 3186 ft 131 kts 105°
2026-04-18 04:05 23.16199 -106.35643 3517 ft 130 kts 102°
2026-04-18 04:05 23.16046 -106.34675 3649 ft 126 kts 95°
2026-04-18 04:05 23.15903 -106.33734 3608 ft 126 kts 103°
2026-04-18 04:06 23.15707 -106.32821 3363 ft 123 kts 98°
2026-04-18 04:06 23.15488 -106.31935 3096 ft 120 kts 106°
2026-04-18 04:06 23.15230 -106.31072 2875 ft 121 kts 103°
2026-04-18 04:06 23.15022 -106.30206 2777 ft 122 kts 95°
2026-04-18 04:07 23.14888 -106.29279 2493 ft 123 kts 99°
2026-04-18 04:07 23.14743 -106.28341 2260 ft 126 kts 95°
2026-04-18 04:07 23.14655 -106.27430 2213 ft 118 kts 92°
2026-04-18 04:07 23.14542 -106.26546 1980 ft 119 kts 94°
2026-04-18 04:08 23.14619 -106.25662 1828 ft 113 kts 77°
2026-04-18 04:08 23.14703 -106.24818 1748 ft 109 kts 81°
2026-04-18 04:08 23.14681 -106.24023 1692 ft 107 kts 89°
2026-04-18 04:08 23.14686 -106.23235 1597 ft 101 kts 84°
2026-04-18 04:09 23.14706 -106.22497 1573 ft 98 kts 88°
2026-04-18 04:09 23.14794 -106.21786 1497 ft 91 kts 56°
2026-04-18 04:09 23.15258 -106.21390 1510 ft 84 kts 18°
2026-04-18 04:09 23.15802 -106.21306 1547 ft 79 kts 334°
2026-04-18 04:10 23.16061 -106.21815 1460 ft 83 kts 272°
2026-04-18 04:10 23.16003 -106.22440 1323 ft 82 kts 271°
2026-04-18 04:10 23.15993 -106.23067 1068 ft 81 kts 273°
2026-04-18 04:10 23.16016 -106.23673 719 ft 80 kts 274°
2026-04-18 04:11 23.16047 -106.24256 397 ft 74 kts 272°
2026-04-18 04:11 23.16069 -106.24780 190 ft 66 kts 273°
2026-04-18 04:11 23.16089 -106.25243 61 ft 56 kts 271°
2026-04-18 04:11 23.16109 -106.25609 41 ft 40 kts 271°
2026-04-18 04:12 23.16119 -106.25871 41 ft 30 kts 273°
2026-04-18 04:12 23.16129 -106.26066 41 ft 23 kts 273°
2026-04-18 04:12 23.16134 -106.26221 41 ft 19 kts 270°
2026-04-18 04:12 23.16142 -106.26365 41 ft 19 kts 277°
2026-04-18 04:13 23.16156 -106.26520 42 ft 22 kts 276°
2026-04-18 04:13 23.16200 -106.26701 42 ft 28 kts 296°
2026-04-18 04:13 23.16329 -106.26853 42 ft 24 kts 344°
2026-04-18 04:13 23.16471 -106.26837 41 ft 16 kts 24°
2026-04-18 04:14 23.16533 -106.26785 41 ft 10 kts 18°
2026-04-18 04:14 23.16565 -106.26736 41 ft 5 kts 96°
2026-04-18 04:14 23.16563 -106.26716 41 ft 0 kts 87°